Change the Weather History Date:

Thursday, January 17, 2013

  Actual Average Record
Temperature  
Mean Temperature 14 °F -  
Max Temperature 33 °F 35 °F 50 °F (1971)
Min Temperature -9 °F 12 °F -16 °F (2007)
Degree Days  
Heating Degree Days 51    
Moisture  
Dew Point 1 °F    
Average Humidity 69    
Maximum Humidity 91    
Minimum Humidity 37    
Precipitation  
Precipitation 0.00 in - - ()
Sea Level Pressure  
Sea Level Pressure 30.57 in    
Wind  
Wind Speed 6 mph (WSW)    
Max Wind Speed 13 mph    
Max Gust Speed -    
Visibility 10 miles    
Events      
Averages and records for this station are not official NWS values.
T = Trace of Precipitation, MM = Missing Value Source: NWS Daily Summary

Daily Weather History Graph

Daily Weather History Graph

Search for Another Location

Airport or City:

Trip Planner

Search our weather history database for the weather conditions in past years. The results will help you decide how hot, cold, wet, or windy it might be!

Date:

Astronomy

Jan. 17, 2013 Rise Set
Actual Time 7:41 AM MST 5:36 PM MST
Civil Twilight 7:13 AM MST 6:04 PM MST
Nautical Twilight 6:41 AM MST 6:36 PM MST
Astronomical Twilight 6:09 AM MST 7:08 PM MST
Moon 10:58 AM MST (1/17) No Moon Set
Length of Visible Light 10h 51m
Length of Day
9h 54m
Waxing Crescent, 38% of the Moon is Illuminated
Jan 17
Waxing Crescent
Jan 18
First Quarter
Jan 26
Full
Feb 3
Last Quarter
Feb 10
New

Hourly Weather History & Observations

Time (MST) Temp. Windchill Dew Point Humidity Pressure Visibility Wind Dir Wind Speed Gust Speed Precip Events Conditions
12:53 AM 3.9 °F -9.4 °F -0.9 °F 80% 30.53 in 10.0 mi WNW 8.1 mph - N/A   Clear
1:53 AM 3.9 °F -12.2 °F -0.9 °F 80% 30.53 in 10.0 mi West 11.5 mph - N/A   Clear
2:53 AM 1.9 °F -10.6 °F -2.9 °F 80% 30.53 in 10.0 mi WSW 6.9 mph - N/A   Clear
3:53 AM 1.0 °F -14.0 °F -4.0 °F 79% 30.54 in 10.0 mi West 9.2 mph - N/A   Clear
4:53 AM 1.9 °F -14.7 °F -2.9 °F 80% 30.54 in 10.0 mi West 11.5 mph - N/A   Clear
5:53 AM 1.0 °F -8.7 °F -2.9 °F 83% 30.58 in 10.0 mi Variable 4.6 mph - N/A   Clear
6:53 AM 1.0 °F -14.0 °F -4.0 °F 79% 30.61 in 10.0 mi West 9.2 mph - N/A   Clear
7:53 AM -0.9 °F -19.1 °F -6.0 °F 79% 30.63 in 10.0 mi West 12.7 mph - N/A   Clear
8:53 AM 6.1 °F -0.9 °F -2.0 °F 69% 30.63 in 10.0 mi West 3.5 mph - N/A   Clear
9:53 AM 14.0 °F - 1.0 °F 56% 30.62 in 10.0 mi Calm Calm - N/A   Clear
10:53 AM 19.9 °F - 5.0 °F 52% 30.63 in 10.0 mi Calm Calm - N/A   Clear
11:53 AM 26.1 °F - 5.0 °F 41% 30.55 in 10.0 mi Calm Calm - N/A   Clear
12:53 PM 27.0 °F - 9.0 °F 47% 30.52 in 10.0 mi Calm Calm - N/A   Clear
1:53 PM 30.0 °F - 10.0 °F 43% 30.48 in 10.0 mi Calm Calm - N/A   Clear
2:53 PM 33.1 °F - 9.0 °F 37% 30.45 in 10.0 mi Calm Calm - N/A   Clear
3:53 PM 28.9 °F 20.4 °F 16.0 °F 58% 30.49 in 10.0 mi SSE 9.2 mph - N/A   Clear
4:53 PM 27.0 °F - 12.9 °F 56% 30.50 in 10.0 mi Calm Calm - N/A   Clear
5:53 PM 21.9 °F - 10.9 °F 63% 30.54 in 10.0 mi Calm Calm - N/A   Clear
6:53 PM 6.1 °F - 1.9 °F 83% 30.65 in 10.0 mi Calm Calm - N/A   Clear
7:53 PM 1.9 °F -11.8 °F -2.0 °F 83% 30.69 in 10.0 mi WSW 8.1 mph - N/A   Clear
8:53 PM 1.0 °F -11.7 °F -2.9 °F 83% 30.65 in 10.0 mi WSW 6.9 mph - N/A   Clear
9:53 PM -2.0 °F -10.1 °F -6.0 °F 83% 30.63 in 10.0 mi WSW 3.5 mph - N/A   Clear
10:53 PM -5.1 °F -15.8 °F -9.9 °F 80% 30.60 in 10.0 mi West 4.6 mph - N/A   Clear
11:53 PM -9.0 °F -22.3 °F -11.0 °F 91% 30.58 in 10.0 mi West 5.8 mph - N/A   Clear